Location: New Plymouth
(39.0670°S, 174.0830°E)
Time: 23:45:58
(UTC+13:00)

Cosmos 292 Rocket - Pass Details

Date: 24 January 2019
Orbit: 674 x 694 km, 74.0° (Epoch: 17 October)

Event Time Altitude Azimuth Distance (km) Brightness Sun altitude
Rises 21:38:56 0° 203° (SSW) 3,066 8.2 -9.7°
Reaches altitude 10° 21:41:16 10° 205° (SSW) 2,145 7.4 -10.0°
Maximum altitude 21:46:02 63° 285° (WNW) 768 4.2 -10.8°
Drops below altitude 10° 21:50:46 10° 6° (N) 2,126 5.9 -11.5°
Enters shadow 21:51:42 - 7° (N) 2,494 6.3 -11.7°
